AUA314 EHAM-LOWW

Flight info

Callsign AUA314
Flight time N/A
Altitude 35000
Route ARNEM L620 HMM DCT NOMKA DCT OMELO DCT EVIKU DCT BITSI DCT MIKOV MIKOV8W
Aircraft B738/M-SDE2E3FGHIRWXY/LB1

Departure

Time 2026-04-28 08:24
Airport Amsterdam Airport Schiphol (EHAM)

Arrival

Time N/A
Airport Vienna International Airport (LOWW)
Time Latitude Longitude Altitude Speed Heading
2026-04-28 08:19 52.32728 4.74726 -6 ft 0 kts 48°
2026-04-28 08:20 52.32735 4.74730 -6 ft 1 kts 358°
2026-04-28 08:20 52.32743 4.74719 -6 ft 2 kts 295°
2026-04-28 08:20 52.32740 4.74684 -6 ft 2 kts 257°
2026-04-28 08:21 52.32733 4.74640 -6 ft 3 kts 253°
2026-04-28 08:21 52.32731 4.74560 -6 ft 11 kts 272°
2026-04-28 08:21 52.32721 4.74452 -6 ft 8 kts 239°
2026-04-28 08:21 52.32689 4.74371 -6 ft 9 kts 248°
2026-04-28 08:22 52.32708 4.74301 -6 ft 10 kts 338°
2026-04-28 08:22 52.32764 4.74265 -6 ft 6 kts 343°
2026-04-28 08:22 52.32800 4.74259 -6 ft 5 kts
2026-04-28 08:22 52.32853 4.74259 -6 ft 9 kts 350°
2026-04-28 08:23 52.32912 4.74184 -5 ft 11 kts 287°
2026-04-28 08:23 52.32916 4.74076 -5 ft 7 kts 261°
2026-04-28 08:23 52.32872 4.74007 -6 ft 21 kts 202°
2026-04-28 08:23 52.32432 4.73942 -6 ft 100 kts 183°
2026-04-28 08:24 52.31512 4.73848 0 ft 164 kts 183°
2026-04-28 08:24 52.30228 4.73603 266 ft 198 kts 188°
2026-04-28 08:24 52.28879 4.73172 1102 ft 205 kts 179°
2026-04-28 08:24 52.27361 4.73192 1416 ft 227 kts 173°
2026-04-28 08:25 52.25811 4.73181 1727 ft 221 kts 175°
2026-04-28 08:25 52.24214 4.73099 2200 ft 240 kts 176°
2026-04-28 08:25 52.22542 4.73195 2642 ft 239 kts 159°
2026-04-28 08:26 52.20558 4.76722 3566 ft 219 kts 105°
2026-04-28 08:26 52.19931 4.79000 4018 ft 224 kts 116°
2026-04-28 08:26 52.19142 4.81159 4469 ft 225 kts 116°
2026-04-28 08:26 52.18356 4.83380 4922 ft 228 kts 115°
2026-04-28 08:27 52.17606 4.85660 5381 ft 228 kts 109°
2026-04-28 08:27 52.17226 4.88126 5836 ft 227 kts 94°
2026-04-28 08:27 52.17050 4.90742 6307 ft 246 kts 95°
2026-04-28 08:27 52.16810 4.93559 6762 ft 252 kts 97°
2026-04-28 08:28 52.16534 4.96368 7206 ft 255 kts 97°
2026-04-28 08:28 52.16253 4.99208 7658 ft 257 kts 97°
2026-04-28 08:28 52.15967 5.02101 8117 ft 259 kts 98°
2026-04-28 08:28 52.15678 5.04975 8568 ft 262 kts 98°
2026-04-28 08:29 52.15379 5.07909 9019 ft 263 kts 98°
2026-04-28 08:29 52.15077 5.10867 9482 ft 266 kts 98°
2026-04-28 08:29 52.14774 5.13820 9938 ft 269 kts 98°
2026-04-28 08:29 52.14468 5.16819 10308 ft 273 kts 98°
2026-04-28 08:30 52.14158 5.19876 10359 ft 273 kts 98°
2026-04-28 08:30 52.13847 5.22900 10379 ft 269 kts 98°
2026-04-28 08:30 52.13539 5.25901 10382 ft 271 kts 98°
2026-04-28 08:30 52.13228 5.28937 10377 ft 271 kts 98°
2026-04-28 08:31 52.12919 5.31933 10380 ft 271 kts 98°
2026-04-28 08:31 52.12607 5.34946 10378 ft 272 kts 98°
2026-04-28 08:31 52.12293 5.37973 10381 ft 271 kts 98°
2026-04-28 08:31 52.11979 5.40991 10376 ft 271 kts 98°
2026-04-28 08:32 52.11662 5.44011 10374 ft 271 kts 98°
2026-04-28 08:32 52.11351 5.46972 10704 ft 269 kts 98°
2026-04-28 08:32 52.11022 5.50117 11135 ft 292 kts 98°
2026-04-28 08:32 52.10674 5.53454 11619 ft 314 kts 98°
2026-04-28 08:33 52.10296 5.57066 11993 ft 339 kts 98°
2026-04-28 08:33 52.09884 5.60988 12371 ft 363 kts 98°
2026-04-28 08:33 52.09450 5.65094 12738 ft 372 kts 99°
2026-04-28 08:33 52.08973 5.69207 13099 ft 374 kts 103°
2026-04-28 08:34 52.08197 5.73238 13473 ft 376 kts 109°
2026-04-28 08:34 52.07282 5.77303 13850 ft 388 kts 109°
2026-04-28 08:34 52.06389 5.81391 14220 ft 389 kts 109°
2026-04-28 08:34 52.05505 5.85558 14601 ft 389 kts 108°
2026-04-28 08:35 52.04633 5.89709 14982 ft 391 kts 108°
2026-04-28 08:35 52.03758 5.93905 15369 ft 395 kts 108°
2026-04-28 08:35 52.02876 5.98137 15749 ft 397 kts 108°
2026-04-28 08:35 52.01998 6.02332 16133 ft 399 kts 109°
2026-04-28 08:36 52.01100 6.06619 16520 ft 402 kts 109°
2026-04-28 08:36 52.00201 6.10904 16903 ft 404 kts 109°
2026-04-28 08:36 51.99299 6.15197 17282 ft 407 kts 109°
2026-04-28 08:36 51.98378 6.19580 17667 ft 410 kts 109°
2026-04-28 08:37 51.97455 6.23954 18050 ft 411 kts 109°
2026-04-28 08:37 51.96535 6.28292 18434 ft 413 kts 109°
2026-04-28 08:37 51.95600 6.32703 18818 ft 415 kts 108°
2026-04-28 08:37 51.94672 6.37095 19190 ft 419 kts 108°
2026-04-28 08:38 51.93722 6.41589 19585 ft 423 kts 109°
2026-04-28 08:38 51.92768 6.46097 19966 ft 426 kts 109°
2026-04-28 08:38 51.91808 6.50601 20350 ft 430 kts 109°
2026-04-28 08:38 51.90825 6.55201 20734 ft 433 kts 109°
2026-04-28 08:39 51.89839 6.59813 21124 ft 436 kts 109°
2026-04-28 08:39 51.88843 6.64466 21511 ft 439 kts 109°
2026-04-28 08:39 51.87845 6.69099 21904 ft 442 kts 110°
2026-04-28 08:39 51.86830 6.73797 22292 ft 446 kts 110°
2026-04-28 08:40 51.85801 6.78554 22686 ft 450 kts 110°
2026-04-28 08:40 51.84761 6.83342 23074 ft 453 kts 110°
2026-04-28 08:40 51.83716 6.88162 23468 ft 457 kts 110°
2026-04-28 08:40 51.82673 6.92964 23844 ft 461 kts 110°
2026-04-28 08:41 51.81603 6.97865 24237 ft 465 kts 109°
2026-04-28 08:41 51.80531 7.02791 24637 ft 465 kts 109°
2026-04-28 08:41 51.79474 7.07663 25066 ft 467 kts 109°
2026-04-28 08:41 51.78402 7.12647 25565 ft 472 kts 109°
2026-04-28 08:42 51.77332 7.17667 26096 ft 476 kts 109°
2026-04-28 08:42 51.76277 7.22654 26582 ft 476 kts 109°
2026-04-28 08:42 51.75223 7.27698 27068 ft 474 kts 109°
2026-04-28 08:42 51.74141 7.32695 27556 ft 473 kts 109°
2026-04-28 08:43 51.73067 7.37702 28041 ft 474 kts 109°
2026-04-28 08:43 51.72002 7.42679 28525 ft 475 kts 109°
2026-04-28 08:43 51.70908 7.47682 29015 ft 474 kts 109°
2026-04-28 08:43 51.69803 7.52683 29501 ft 476 kts 110°
2026-04-28 08:44 51.68653 7.57707 29998 ft 476 kts 110°
2026-04-28 08:44 51.67495 7.62648 30488 ft 477 kts 110°
2026-04-28 08:44 51.66315 7.67613 30975 ft 473 kts 112°
2026-04-28 08:44 51.65151 7.72501 31414 ft 471 kts 111°
2026-04-28 08:45 51.63983 7.77452 31860 ft 471 kts 111°
2026-04-28 08:45 51.62834 7.82351 32299 ft 470 kts 111°
2026-04-28 08:45 51.61685 7.87254 32737 ft 470 kts 110°
2026-04-28 08:45 51.60553 7.92149 33180 ft 467 kts 110°
2026-04-28 08:46 51.59425 7.97008 33618 ft 465 kts 110°
2026-04-28 08:46 51.58306 8.01836 34037 ft 465 kts 110°
2026-04-28 08:46 51.57187 8.06669 34424 ft 464 kts 110°
2026-04-28 08:46 51.56066 8.11515 34812 ft 463 kts 109°
2026-04-28 08:47 51.54958 8.16308 35229 ft 461 kts 109°
2026-04-28 08:47 51.53852 8.21095 35643 ft 458 kts 109°
2026-04-28 08:47 51.52732 8.25930 35758 ft 465 kts 109°
2026-04-28 08:48 51.50482 8.35627 35775 ft 463 kts 109°
2026-04-28 08:48 51.48244 8.45217 35789 ft 458 kts 109°
2026-04-28 08:49 51.45996 8.54804 35792 ft 464 kts 109°
2026-04-28 08:49 51.43721 8.64462 35741 ft 465 kts 109°
2026-04-28 08:50 51.41447 8.74060 35638 ft 462 kts 110°
2026-04-28 08:50 51.39172 8.83617 35543 ft 464 kts 110°
2026-04-28 08:51 51.36863 8.93274 35445 ft 466 kts 110°
2026-04-28 08:51 51.34553 9.02877 35344 ft 466 kts 110°
2026-04-28 08:52 51.32227 9.12533 35241 ft 465 kts 110°
2026-04-28 08:52 51.29908 9.22105 35188 ft 463 kts 110°
2026-04-28 08:52 51.28749 9.26871 35606 ft 455 kts 110°
2026-04-28 08:53 51.27616 9.31523 35765 ft 460 kts 110°
2026-04-28 08:53 51.25252 9.41202 35783 ft 471 kts 110°
2026-04-28 08:54 51.22893 9.50808 35787 ft 464 kts 110°
2026-04-28 08:54 51.20547 9.60318 35791 ft 466 kts 110°
2026-04-28 08:55 51.18154 9.69978 35790 ft 469 kts 111°
2026-04-28 08:55 51.15760 9.79610 35786 ft 468 kts 111°
2026-04-28 08:56 51.13378 9.89149 35787 ft 467 kts 111°
2026-04-28 08:56 51.10983 9.98714 35797 ft 469 kts 111°
2026-04-28 08:57 51.08559 10.08347 35795 ft 469 kts 111°
2026-04-28 08:57 51.06132 10.17919 35803 ft 469 kts 111°
2026-04-28 08:58 51.03697 10.27489 35810 ft 468 kts 111°
2026-04-28 08:58 51.01259 10.37046 35820 ft 469 kts 111°
2026-04-28 08:59 50.98813 10.46597 35833 ft 470 kts 111°
2026-04-28 08:59 50.96360 10.56151 35714 ft 470 kts 111°
2026-04-28 09:00 50.93902 10.65671 35582 ft 470 kts 112°
2026-04-28 09:00 50.91419 10.75241 35456 ft 472 kts 112°
2026-04-28 09:01 50.88903 10.84869 35325 ft 472 kts 112°
2026-04-28 09:01 50.86225 10.94291 35182 ft 471 kts 118°
2026-04-28 09:02 50.82933 11.03266 35126 ft 482 kts 120°
2026-04-28 09:02 50.79562 11.12538 35152 ft 488 kts 120°
2026-04-28 09:03 50.76235 11.21731 35177 ft 482 kts 120°
2026-04-28 09:03 50.72918 11.30911 35142 ft 486 kts 119°
2026-04-28 09:04 50.69580 11.40118 35163 ft 488 kts 119°
2026-04-28 09:04 50.66228 11.49343 35184 ft 487 kts 119°
2026-04-28 09:05 50.62863 11.58600 35212 ft 487 kts 119°
2026-04-28 09:05 50.59511 11.67797 35234 ft 488 kts 120°
2026-04-28 09:06 50.56127 11.77042 35260 ft 488 kts 120°
2026-04-28 09:06 50.52746 11.86234 35290 ft 489 kts 120°
2026-04-28 09:07 50.49350 11.95431 35313 ft 489 kts 120°
2026-04-28 09:07 50.45947 12.04608 35335 ft 490 kts 120°
2026-04-28 09:08 50.42512 12.13858 35353 ft 491 kts 120°
2026-04-28 09:08 50.39098 12.23018 35375 ft 490 kts 120°
2026-04-28 09:09 50.35644 12.32241 35394 ft 491 kts 120°
2026-04-28 09:09 50.32207 12.41389 35414 ft 491 kts 120°
2026-04-28 09:10 50.28745 12.50572 35431 ft 491 kts 120°
2026-04-28 09:10 50.25292 12.59697 35451 ft 491 kts 120°
2026-04-28 09:11 50.21818 12.68846 35470 ft 491 kts 121°
2026-04-28 09:11 50.18344 12.77975 35489 ft 491 kts 121°
2026-04-28 09:12 50.14860 12.87099 35515 ft 491 kts 121°
2026-04-28 09:12 50.11371 12.96190 35549 ft 493 kts 121°
2026-04-28 09:13 50.07863 13.05289 35560 ft 493 kts 121°
2026-04-28 09:13 50.04327 13.14447 35581 ft 493 kts 121°
2026-04-28 09:14 50.00811 13.23516 35612 ft 494 kts 121°
2026-04-28 09:14 49.97272 13.32625 35634 ft 493 kts 121°
2026-04-28 09:15 49.93709 13.41757 35652 ft 494 kts 121°
2026-04-28 09:15 49.90147 13.50841 35683 ft 498 kts 121°
2026-04-28 09:16 49.86529 13.60030 35709 ft 499 kts 121°
2026-04-28 09:16 49.82945 13.69150 35728 ft 497 kts 122°
2026-04-28 09:17 49.79366 13.78191 35755 ft 496 kts 122°
2026-04-28 09:17 49.75742 13.87306 35787 ft 500 kts 122°
2026-04-28 09:18 49.72089 13.96436 35810 ft 501 kts 122°
2026-04-28 09:18 49.68433 14.05531 35836 ft 499 kts 123°
2026-04-28 09:19 49.64783 14.14554 35853 ft 501 kts 122°
2026-04-28 09:19 49.61123 14.23743 35876 ft 504 kts 122°
2026-04-28 09:20 49.57451 14.32838 35904 ft 503 kts 122°
2026-04-28 09:20 49.53757 14.41960 35921 ft 503 kts 122°
2026-04-28 09:21 49.50046 14.51075 35936 ft 503 kts 122°